{"data":{"norad_id":60119,"intl_designator":"2024-118G","name":"STARLINK-11127 [DTC]","alt_names":[],"object_type":"PAYLOAD","status":"ACTIVE","operator":null,"country":"US","launch_date":"2024-06-24","launch_site_code":"AFWTR","launch_vehicle":null,"mission":null,"orbit_class":"UNKNOWN","rcs_meters":null,"size_class":null,"mass_kg":null,"dimensions":null,"purposes":["comms"],"wikipedia_slug":null,"has_3d_model":false,"image_url":null,"decayed_at":null,"tle_current":{"epoch":"2026-09-21T15:55:54.734016Z","epoch_age_seconds":81697,"freshness":"FRESH","line1":"1 60119U 24118G   26264.66382794  .00002341  00000+0  24167-4 0  9991","line2":"2 60119  53.1596 335.1503 0001252  80.1226 279.9934 15.69720226128775","mean_motion":15.69720226,"eccentricity":0.0001252,"inclination_deg":53.1596,"raan_deg":335.1503,"arg_perigee_deg":80.1226,"mean_anomaly_deg":279.9934,"bstar":2.4167e-5,"rev_number":12877,"period_min":91.73609259463,"perigee_km":358.85391080309,"apogee_km":360.54106455881,"semimajor_km":6737.8344876809,"source":"CELESTRAK","updated_at":"2026-09-22T09:00:49.155716Z"}}}